EDSBEDDS

Guest
Details From EDSB - Karlsruhe Baden Baden
To EDDS - Stuttgart
Flight Number -
Tags decoded
Created
Modified
Stats Distance 46 nm / 86 km
Max Altitude 0 ft / 0 m
Waypoints 3
Social Downloads 1
Likes 0
Share VATSIM

Download

Looking for another format? Having issues loading an existing format? Contact us
Advertisement - Login to hide

Notes

Requested: EDSB SB052 VATER EDDS Unmatched points: SB052

Route

EDSB VATER EDDS

ID Type Via Altitude Latitude Longitude Leg Dist Tot Dist Heading (true) Name
O EDSB APT - 0 ft / 0 m 48.77926˚ 8.08064˚ - 0 nm - Karlsruhe Baden Baden
VATER FIX - 0 ft / 0 m 48.64781˚ 9.00111˚ 37 nm 37 nm 102° / 103° -
O EDDS APT - 0 ft / 0 m 48.68988˚ 9.22196˚ 9 nm 46 nm 74° / 74° Stuttgart

Altitude Profile

Advertisement - Login to hide

EDSB

Details ICAO EDSB (FKB)
Name Karlsruhe Baden Baden
Region Germany - Civil
Timezone Europe/Berlin (UTC+1.0)
Stats Elevation 408 ft / 124 m (AMSL)
Location 48.779257° 8.080642°
Runways 1
Magnetic Variation 2.224° E

METAR

EDSB 172320Z 21006KT 9999 BKN050 02/M00 Q1026

Decode

TAF

TAF EDSB 171700Z 1718/1818 20008KT 9999 BKN040 BECMG 1802/1804 4000 -SN BKN012 TEMPO 1804/1810 2500 SN OVC005 BECMG 1810/1812 6000 BKN015 TEMPO 1810/1818 4000 -RASN BKN012

Decode

Departure Runways

ID Width Length Bearing (true) Bearing (mag) Surface Threshold Offset Overrun Length
03 148 ft / 45 m 9,799 ft / 2,987 m 31.69° 29.47° Asphalt 830 ft / 253 m 115 ft / 35 m
21 148 ft / 45 m 9,799 ft / 2,987 m 211.70° 209.48° Asphalt 830 ft / 253 m 115 ft / 35 m

EDDS

Details ICAO EDDS (STR)
Name Stuttgart
Region Germany - Civil
Timezone Europe/Berlin (UTC+1.0)
Stats Elevation 1,273 ft / 388 m (AMSL)
Location 48.689876° 9.221962°
Runways 1
Magnetic Variation 2.524° E

METAR

EDDS 172320Z 22005KT 170V250 9999 BKN040 01/M02 Q1025

Decode

TAF

TAF TAF EDDS 171700Z 1718/1818 24007KT 9999 BKN035 BECMG 1804/1807 4000 -SN BKN012 TEMPO 1807/1812 2500 SN OVC008 BECMG 1809/1812 14004KT 6000 TEMPO 1812/1818 3000 -RASN BKN008

Decode

Destination Runways

ID Width Length Bearing (true) Bearing (mag) Surface Threshold Offset Overrun Length
07 148 ft / 45 m 10,950 ft / 3,337 m 73.96° 71.44° Concrete 981 ft / 299 m 157 ft / 48 m
25 148 ft / 45 m 10,950 ft / 3,337 m 253.99° 251.47° Concrete 0 ft / 0 m 157 ft / 48 m

Approach Navaids

Runway Type Ident Frequency Range Bearing (true) Bearing (mag) Slope Elevation
07 Localiser ISTE 110.90 MHz 18 nm / 33 km 73.99° 71.47° - 1,181 ft / 360 m (AMSL)
07 Glidescope ISTE 110.90 MHz 10 nm / 19 km 73.97° 71.44° 3.00° 1,267 ft / 386 m (AMSL)
07 DME ISTE 115.45 MHz 18 nm / 33 km - - - 1,332 ft / 406 m (AMSL)
25 Localiser ISTW 109.90 MHz 18 nm / 33 km 253.95° 251.42° - 1,267 ft / 386 m (AMSL)
25 Glidescope ISTW 109.90 MHz 10 nm / 19 km 253.97° 251.44° 3.00° 1,181 ft / 360 m (AMSL)
25 DME ISTW 115.45 MHz 18 nm / 33 km - - - 1,332 ft / 406 m (AMSL)

Popular Alternatives